Starlink 35259

operational
NORAD ID: 66198 Int'l Des: 2025-243 Owner: SPXS Country: US Constellation: starlink
LEOCIRCULAR

Über Starlink 35259

Beschreibung wird geladen...

Live-Position

3D-Globus wird geladen...

Nächste Überflüge

Höhenverlauf

Altitude vs Time

uPlot chart will show altitude changes over time

Zweizeiliger Elementsatz

1 66198C 25243W 25299.73520833 .00886960 00000+0 14503-2 0 2998
2 66198 53.1579 157.0766 0009329 275.3429 15.9631 16.01569862 19
Epoch: 26. Okt. 2025 • Age: 132 hours

Aktueller Status

Höhe 241.0 km
Geschwindigkeit 7.76 km/s
Subsatellitenpunkt 18.25°N, 65.94°W
Startdatum 26. Okt. 2025
Alter 4 days
Typ internet

Technische Details

Klassifizierung Payload
Masse 575.00 kg
Trockenmasse 530.00 kg
Gesamtmasse 575.00 kg
Länge 0.30 m
Durchmesser 4.10 m
Spannweite 29.00 m
Form Box + pan
Hersteller SPXS
Bus-Typ Starlink V2MO
Phasenstatus In Orbit
Besitzer/Staat SPXS/US

Große Konstellationen

Loading constellations...